Volver al catálogo

SL-14 DEB

LostPO
NORAD 39970·DEBRIS·🇷🇺 Russia

Lanzado Aug 18, 1987 desde Plesetsk Cosmodrome

Loading…

Próximos Pases (próximas 24 horas)

TLE

ObsoletoSource: Space-Track

Época: Jun 19, 2024, 15:08 UTC

1 39970U 87068CW  24171.63092453  .00003034  00000-0  15642-2 0  9994
2 39970  82.5383 295.5170 0012883 352.2443   7.8533 14.14822837 26300

Sigue SL-14 DEB en tiempo real con AllMySat

Download on the App Store